ORBCOMM FM06 1 25118U 97084G 26207.05899876 .00000988 00000+0 30459-3 0 9992 2 25118 45.0120 225.5692 0001979 267.2228 121.8027 14.47644850500028 ORBCOMM FM04 1 25159U 98007C 26208.10777402 .00000722 00000+0 29236-3 0 9997 2 25159 107.9631 251.5857 0042064 256.6929 102.9519 14.35800499482328 ORBCOMM FM19 1 25415U 98046C 26208.87969303 .00001045 00000+0 37687-3 0 9990 2 25415 44.9944 50.1234 0003668 144.9397 230.0833 14.39563926462647 ORBCOMM FM20 1 25416U 98046D 26208.86085111 .00000750 00000+0 29180-3 0 9997 2 25416 44.9943 58.5865 0000878 116.0594 244.0344 14.38117307462647 ORBCOMM FM27 1 25481U 98053G 26208.86581438 .00000979 00000+0 35853-3 0 9997 2 25481 45.0043 142.1318 0001600 342.8681 17.2113 14.39206117456090 ORBCOMM FM32 1 25982U 99065C 26208.67830912 .00000702 00000+0 28110-3 0 9992 2 25982 45.0170 341.5724 0006687 248.4156 111.5980 14.37183484392910 ORBCOMM FM109 1 40086U 14040A 26208.84785494 .00000244 00000+0 87846-4 0 9990 2 40086 47.0025 259.2435 0000834 5.4521 354.6374 14.58879565640280 ORBCOMM FM110 1 41182U 15081D 26208.57827570 .00000778 00000+0 20050-3 0 9991 2 41182 47.0009 170.4531 0003872 269.7489 90.2953 14.58936000563529 ORBCOMM FM118 1 41183U 15081E 26208.27041419 .00000692 00000+0 18252-3 0 9995 2 41183 47.0030 172.2510 0003392 235.2849 124.7717 14.58919012563587 ORBCOMM FM112 1 41184U 15081F 26208.68502800 .00000746 00000+0 19373-3 0 9992 2 41184 46.9990 78.7348 0002910 26.4840 333.6194 14.58955663564860 ORBCOMM FM113 1 41185U 15081G 26208.66312810 .00000446 00000+0 13055-3 0 9999 2 41185 47.0008 79.2368 0001456 16.5359 343.5574 14.58893567564844 ORBCOMM FM108 1 41187U 15081J 26208.69335623 .00000712 00000+0 18665-3 0 9999 2 41187 47.0064 350.6770 0001839 14.5475 345.5464 14.58926414565998 ORBCOMM FM117 1 41188U 15081K 26208.45374778 .00000680 00000+0 17996-3 0 9998 2 41188 47.0027 350.4341 0002240 23.6463 336.4525 14.58912706566004 ORBCOMM FM116 1 41189U 15081L 26208.02290261 .00000578 00000+0 15837-3 0 9994 2 41189 47.0023 82.2607 0001779 259.5601 100.5084 14.58920098564759